Weather History for La Grande, OR

Change the Weather History Date:

Saturday, January 19, 2013

  Actual Average Record
Temperature  
Mean Temperature 22 °F -  
Max Temperature 30 °F 36 °F 53 °F (1981)
Min Temperature 14 °F 27 °F 6 °F (1984)
Degree Days  
Heating Degree Days 43    
Moisture  
Dew Point 8 °F    
Average Humidity 59    
Maximum Humidity 68    
Minimum Humidity 44    
Precipitation  
Precipitation 0.00 in - - ()
Sea Level Pressure  
Sea Level Pressure 30.44 in    
Wind  
Wind Speed 10 mph (NNW)    
Max Wind Speed 23 mph    
Max Gust Speed 32 mph    
Visibility 10 miles    
Events      
Averages and records for this station are not official NWS values.
T = Trace of Precipitation, MM = Missing Value Source: NWS Daily Summary

Daily Weather History Graph

Daily Weather History Graph

Search for Another Location

Airport:

Trip Planner

Search our weather history database for the weather conditions in past years. The results will help you decide how hot, cold, wet, or windy it might be!

Date:

Astronomy

Jan. 19, 2013 Rise Set
Actual Time 7:24 AM PST 4:41 PM PST
Civil Twilight 6:52 AM PST 5:14 PM PST
Nautical Twilight 6:15 AM PST 5:50 PM PST
Astronomical Twilight 5:40 AM PST 6:25 PM PST
Moon 11:13 AM PST (1/19) 12:59 AM PST (1/19)
Length of Visible Light 10h 21m
Length of Day
9h 16m
First Quarter, 58% of the Moon is Illuminated
Jan 19
First Quarter
Jan 26
Full
Feb 3
Last Quarter
Feb 9
New
Feb 17
First Quarter

Hourly Weather History & Observations

Time (PST) Temp. Windchill Dew Point Humidity Pressure Visibility Wind Dir Wind Speed Gust Speed Precip Events Conditions
12:15 AM 19.4 °F 6.6 °F 8.6 °F 63% 30.40 in 10.0 mi NNW 12.7 mph - N/A   Clear
12:35 AM 17.6 °F 5.0 °F 8.6 °F 68% 30.40 in 10.0 mi North 11.5 mph - N/A   Clear
12:55 AM 17.6 °F 5.7 °F 6.8 °F 63% 30.41 in 10.0 mi North 10.4 mph - N/A   Clear
1:15 AM 17.6 °F 7.3 °F 6.8 °F 63% 30.41 in 10.0 mi North 8.1 mph - N/A   Clear
1:35 AM 17.6 °F 5.0 °F 6.8 °F 63% 30.41 in 10.0 mi North 11.5 mph - N/A   Clear
1:55 AM 15.8 °F 5.1 °F 6.8 °F 68% 30.42 in 10.0 mi North 8.1 mph - N/A   Clear
2:15 AM 15.8 °F 4.2 °F 6.8 °F 68% 30.42 in 10.0 mi NNW 9.2 mph - N/A   Clear
2:35 AM 15.8 °F 6.1 °F 5.0 °F 62% 30.42 in 10.0 mi WNW 6.9 mph - N/A   Clear
2:55 AM 15.8 °F 6.1 °F 6.8 °F 68% 30.43 in 10.0 mi NNW 6.9 mph - N/A   Clear
3:15 AM 15.8 °F 7.2 °F 5.0 °F 62% 30.42 in 10.0 mi North 5.8 mph - N/A   Clear
3:35 AM 15.8 °F 3.4 °F 6.8 °F 68% 30.42 in 10.0 mi North 10.4 mph - N/A   Clear
3:55 AM 14.0 °F 2.9 °F 5.0 °F 67% 30.41 in 10.0 mi North 8.1 mph - N/A   Clear
4:15 AM 14.0 °F -0.2 °F 3.2 °F 62% 30.41 in 10.0 mi NNE 12.7 mph - N/A   Clear
4:35 AM 15.8 °F 5.1 °F 6.8 °F 68% 30.42 in 10.0 mi NNE 8.1 mph - N/A   Clear
4:55 AM 15.8 °F 6.1 °F 6.8 °F 68% 30.42 in 10.0 mi NNE 6.9 mph - N/A   Clear
5:15 AM 15.8 °F 6.1 °F 6.8 °F 68% 30.43 in 10.0 mi North 6.9 mph - N/A   Clear
5:35 AM 17.6 °F 8.2 °F 6.8 °F 63% 30.42 in 10.0 mi North 6.9 mph - N/A   Clear
5:55 AM 14.0 °F 3.9 °F 3.2 °F 62% 30.43 in 10.0 mi North 6.9 mph - N/A   Clear
6:15 AM 15.8 °F 4.2 °F 5.0 °F 62% 30.44 in 10.0 mi NNW 9.2 mph - N/A   Clear
6:35 AM 15.8 °F 4.2 °F 6.8 °F 68% 30.44 in 10.0 mi North 9.2 mph - N/A   Clear
6:55 AM 14.0 °F 1.2 °F 5.0 °F 67% 30.44 in 10.0 mi North 10.4 mph - N/A   Clear
7:15 AM 14.0 °F 1.2 °F 5.0 °F 67% 30.44 in 9.0 mi North 10.4 mph - N/A   Clear
7:35 AM 15.8 °F 5.1 °F 6.8 °F 68% 30.44 in 9.0 mi North 8.1 mph - N/A   Clear
7:55 AM 15.8 °F 3.4 °F 5.0 °F 62% 30.45 in 9.0 mi North 10.4 mph - N/A   Clear
8:15 AM 15.8 °F 2.7 °F 6.8 °F 68% 30.45 in 10.0 mi NNE 11.5 mph - N/A   Clear
8:35 AM 17.6 °F 5.0 °F 8.6 °F 68% 30.46 in 10.0 mi NNE 11.5 mph - N/A   Clear
8:55 AM 19.4 °F 7.2 °F 8.6 °F 63% 30.47 in 10.0 mi NNE 11.5 mph - N/A   Clear
9:15 AM 21.2 °F 10.1 °F 10.4 °F 63% 30.48 in 10.0 mi North 10.4 mph 19.6 mph N/A   Clear
9:35 AM 21.2 °F 11.7 °F 10.4 °F 63% 30.48 in 10.0 mi North 8.1 mph - N/A   Clear
9:55 AM 23.0 °F 12.4 °F 12.2 °F 63% 30.49 in 10.0 mi North 10.4 mph - N/A   Clear
10:15 AM 24.8 °F 17.9 °F 10.4 °F 54% 30.49 in 10.0 mi North 5.8 mph - N/A   Clear
10:35 AM 28.4 °F 16.2 °F 12.2 °F 51% 30.48 in 10.0 mi South 17.3 mph 20.7 mph N/A   Clear
10:55 AM 28.4 °F 18.5 °F 12.2 °F 51% 30.47 in 10.0 mi South 11.5 mph 24.2 mph N/A   Clear
11:15 AM 28.4 °F 16.2 °F 12.2 °F 51% 30.47 in 10.0 mi South 17.3 mph 26.5 mph N/A   Clear
11:35 AM 28.4 °F 16.6 °F 10.4 °F 47% 30.46 in 10.0 mi South 16.1 mph 28.8 mph N/A   Clear
11:55 AM 28.4 °F 14.4 °F 10.4 °F 47% 30.45 in 10.0 mi South 23.0 mph 28.8 mph N/A   Clear
12:15 PM 28.4 °F 22.2 °F 10.4 °F 47% 30.44 in 10.0 mi South 5.8 mph 28.8 mph N/A   Clear
12:35 PM 28.4 °F 15.8 °F 12.2 °F 51% 30.44 in 10.0 mi South 18.4 mph 24.2 mph N/A   Clear
12:55 PM 28.4 °F 14.7 °F 10.4 °F 47% 30.43 in 10.0 mi SSW 21.9 mph 27.6 mph N/A   Clear
1:15 PM 30.2 °F 19.3 °F 12.2 °F 47% 30.43 in 10.0 mi South 15.0 mph 32.2 mph N/A   Clear
1:35 PM 30.2 °F 18.5 °F 12.2 °F 47% 30.43 in 10.0 mi South 17.3 mph 24.2 mph N/A   Clear
1:55 PM 30.2 °F 19.8 °F 10.4 °F 44% 30.42 in 10.0 mi SSE 13.8 mph 23.0 mph N/A   Clear
2:15 PM 30.2 °F 22.6 °F 12.2 °F 47% 30.43 in 10.0 mi SSW 8.1 mph 28.8 mph N/A   Clear
2:35 PM 30.2 °F 17.1 °F 10.4 °F 44% 30.42 in 10.0 mi South 21.9 mph 31.1 mph N/A   Clear
2:55 PM 30.2 °F 18.9 °F 12.2 °F 47% 30.42 in 10.0 mi South 16.1 mph 23.0 mph N/A   Clear
3:15 PM 30.2 °F 20.8 °F 12.2 °F 47% 30.42 in 10.0 mi South 11.5 mph 19.6 mph N/A   Clear
3:35 PM 30.2 °F 19.8 °F 10.4 °F 44% 30.42 in 10.0 mi South 13.8 mph 19.6 mph N/A   Clear
3:55 PM 28.4 °F 16.6 °F 10.4 °F 47% 30.42 in 10.0 mi South 16.1 mph 24.2 mph N/A   Clear
4:15 PM 26.6 °F 14.3 °F 10.4 °F 51% 30.42 in 10.0 mi South 16.1 mph 19.6 mph N/A   Clear
4:35 PM 28.4 °F 19.7 °F 10.4 °F 47% 30.42 in 10.0 mi South 9.2 mph 25.3 mph N/A   Clear
4:55 PM 26.6 °F 15.2 °F 10.4 °F 51% 30.42 in 10.0 mi South 13.8 mph - N/A   Clear
5:15 PM 26.6 °F 13.4 °F 10.4 °F 51% 30.42 in 10.0 mi South 18.4 mph 26.5 mph N/A   Clear
5:35 PM 26.6 °F 13.8 °F 10.4 °F 51% 30.42 in 10.0 mi South 17.3 mph 20.7 mph N/A   Clear
5:55 PM 26.6 °F 22.6 °F 10.4 °F 51% 30.43 in 10.0 mi South 3.5 mph - N/A   Clear
6:15 PM 26.6 °F 17.5 °F 10.4 °F 51% 30.43 in 10.0 mi South 9.2 mph - N/A   Clear
6:35 PM 24.8 °F 14.0 °F 8.6 °F 50% 30.43 in 10.0 mi SSW 11.5 mph 17.3 mph N/A   Clear
6:55 PM 19.4 °F - 6.8 °F 58% 30.44 in 10.0 mi Calm Calm - N/A   Clear
7:15 PM 21.2 °F 13.6 °F 8.6 °F 58% 30.44 in 10.0 mi NNW 5.8 mph - N/A   Clear
7:35 PM 21.2 °F 12.6 °F 8.6 °F 58% 30.44 in 10.0 mi NNW 6.9 mph - N/A   Clear
7:55 PM 21.2 °F 12.6 °F 8.6 °F 58% 30.44 in 10.0 mi SSW 6.9 mph - N/A   Clear
8:15 PM 21.2 °F 13.6 °F 10.4 °F 63% 30.45 in 10.0 mi South 5.8 mph - N/A   Clear
8:35 PM 19.4 °F - 6.8 °F 58% 30.45 in 10.0 mi Calm Calm - N/A   Clear
8:55 PM 17.6 °F - 6.8 °F 63% 30.45 in 10.0 mi Calm Calm - N/A   Clear
9:15 PM 15.8 °F 4.2 °F 3.2 °F 58% 30.46 in 9.0 mi North 9.2 mph - N/A   Clear
9:35 PM 15.8 °F 5.1 °F 6.8 °F 68% 30.46 in 10.0 mi North 8.1 mph - N/A   Clear
9:55 PM 15.8 °F 6.1 °F 6.8 °F 68% 30.46 in 10.0 mi North 6.9 mph - N/A   Clear
10:15 PM 15.8 °F 8.6 °F 6.8 °F 68% 30.46 in 10.0 mi North 4.6 mph - N/A   Clear
10:35 PM 15.8 °F 7.2 °F 5.0 °F 62% 30.47 in 10.0 mi NNE 5.8 mph - N/A   Clear
10:55 PM 15.8 °F 7.2 °F 6.8 °F 68% 30.47 in 10.0 mi North 5.8 mph - N/A   Clear
11:15 PM 15.8 °F 7.2 °F 6.8 °F 68% 30.47 in 10.0 mi NNE 5.8 mph - N/A   Clear
11:35 PM 14.0 °F - 3.2 °F 62% 30.47 in 10.0 mi Calm Calm - N/A   Clear